Location: Newark
(48.1500°N, 2.9667°W)
Time: 18:41:56
(UTC+00:00)

Altair - Pass Details

Date: 02 February 2020
Orbit: 1502 x 1682 km, 47.2° (Epoch: 25 February)

Event Time Altitude Azimuth Distance (km) Brightness Sun altitude
Rises 10:36:08 0° 279° (W) 4,906 9.8 20.5°
Reaches altitude 10° 10:39:16 10° 278° (W) 3,931 9.4 20.8°
Maximum altitude 10:49:25 80° 194° (SSW) 1,709 8.3 21.5°
Drops below altitude 10° 10:59:32 10° 110° (ESE) 3,921 10.4 22.2°
Sets 11:02:39 0° 109° (ESE) 4,893 10.7 22.4°
